Date String (YYYY-MM-DD hh:mm:ss) UTC,Instrument flags,Ambient pressure (hPa),Sample flow (lpm),Bypass flow (lpm),Sample temperature (°C),Ambient temperature (°C),ASC tube jacket temperature (°C),LED temperature (°C),Box temperature (°C),Sample RH (%),Span deviation,Mass concentration (μg/m³),Mass concentration (μg/m³),Mass concentration (μg/m³)
DateTimeUTC,F1_M11,P_M11,Q1_M11,Q2_M11,T1_M11,T2_M11,T3_M11,T4_M11,T5_M11,U1_M11,ZSPAN_M11,X0_M11,X2_M11,X1_M11
2021-09-21 09:00:00,,0837.8,5.00,0.00,27.6,26.7,00.0,37.0,29.2,21.7,0000.0,0003.56,0002.42,0002.15
2021-09-21 09:01:00,,0837.8,5.00,0.00,27.6,26.7,00.0,36.9,29.2,21.5,0000.0,0003.39,0002.44,0002.15
2021-09-21 09:02:00,,0837.8,5.01,0.00,27.5,26.6,00.0,36.9,29.2,21.5,0000.0,0003.95,0002.46,0002.16
2021-09-21 09:03:00,,0837.9,5.00,0.00,27.5,26.6,00.0,36.9,29.2,21.5,0000.0,0004.11,0002.45,0002.16
2021-09-21 09:04:00,,0837.8,4.99,0.00,27.5,26.6,00.0,36.9,29.1,21.3,0000.0,0004.11,0002.45,0002.15
2021-09-21 09:05:00,,0837.8,5.00,0.00,27.5,26.6,00.0,36.8,29.1,21.3,0000.0,0004.13,0002.45,0002.14
2021-09-21 09:06:00,,0837.8,5.01,0.00,27.5,26.6,00.0,36.8,29.1,21.1,0000.0,0004.12,0002.42,0002.12
2021-09-21 09:07:00,,0837.8,5.00,0.00,27.4,26.6,00.0,36.8,29.1,20.9,0000.0,0004.09,0002.41,0002.10
2021-09-21 09:08:00,,0837.8,5.00,0.00,27.4,26.6,00.0,36.8,29.1,21.0,0000.0,0004.09,0002.38,0002.08
2021-09-21 09:09:00,,0837.8,5.01,0.00,27.4,26.6,00.0,36.8,29.1,20.9,0000.0,0004.24,0002.40,0002.07
2021-09-21 09:10:00,,0837.8,5.00,0.00,27.4,26.6,00.0,36.7,29.0,20.9,0000.0,0004.09,0002.36,0002.04
2021-09-21 09:11:00,,0837.8,5.01,0.00,27.4,26.5,00.0,36.7,29.1,20.9,0000.0,0004.03,0002.32,0002.00
2021-09-21 09:12:00,,0837.8,5.00,0.00,27.4,26.5,00.0,36.7,29.0,20.8,0000.0,0003.93,0002.28,0001.98
2021-09-21 09:13:00,,0837.8,4.99,0.00,27.4,26.6,00.0,36.7,29.1,20.8,0000.0,0003.27,0002.25,0001.96
2021-09-21 09:14:00,,0837.8,5.00,0.00,27.3,26.6,00.0,36.7,29.0,20.7,0000.0,0003.34,0002.23,0001.95
2021-09-21 09:15:00,,0837.9,5.00,0.00,27.3,26.6,00.0,36.7,29.0,20.7,0000.0,0003.67,0002.19,0001.93
2021-09-21 09:16:00,,0838.0,5.01,0.00,27.3,26.6,00.0,36.7,29.0,20.6,0000.0,0003.64,0002.17,0001.91
2021-09-21 09:17:00,,0838.0,4.99,0.00,27.3,26.6,00.0,36.6,29.0,20.6,0000.0,0003.71,0002.19,0001.91
2021-09-21 09:18:00,,0838.0,5.00,0.00,27.3,26.6,00.0,36.6,29.0,20.6,0000.0,0003.81,0002.23,0001.92
2021-09-21 09:19:00,,0838.0,5.01,0.00,27.3,26.6,00.0,36.6,29.1,20.6,0000.0,0003.93,0002.26,0001.91
2021-09-21 09:20:00,,0838.0,5.00,0.00,27.3,26.6,00.0,36.6,29.1,20.6,0000.0,0003.83,0002.21,0001.90
2021-09-21 09:21:00,,0838.0,4.99,0.00,27.4,26.6,00.0,36.6,29.2,20.4,0000.0,0003.83,0002.20,0001.90
2021-09-21 09:22:00,,0838.0,5.01,0.00,27.4,26.7,00.0,36.6,29.2,20.3,0000.0,0003.89,0002.21,0001.89
2021-09-21 09:23:00,,0838.1,4.99,0.00,27.4,26.7,00.0,36.6,29.2,20.3,0000.0,0003.87,0002.19,0001.89
2021-09-21 09:24:00,,0838.0,5.01,0.00,27.4,26.7,00.0,36.6,29.3,20.3,0000.0,0003.92,0002.22,0001.89
2021-09-21 09:25:00,,0838.0,5.00,0.00,27.5,26.8,00.0,36.6,29.3,20.3,0000.0,0003.72,0002.22,0001.88
2021-09-21 09:26:00,,0838.1,4.99,0.00,27.5,26.8,00.0,36.6,29.3,20.2,0000.0,0003.24,0002.24,0001.88
2021-09-21 09:27:00,,0838.1,5.01,0.00,27.5,26.9,00.0,36.6,29.4,20.2,0000.0,0003.33,0002.27,0001.88
2021-09-21 09:28:00,,0838.1,5.00,0.00,27.6,26.9,00.0,36.6,29.5,20.2,0000.0,0003.22,0002.23,0001.88
2021-09-21 09:29:00,,0838.1,4.99,0.00,27.6,27.0,00.0,36.6,29.5,20.2,0000.0,0003.14,0002.19,0001.88
2021-09-21 09:30:00,,0838.1,5.01,0.00,27.6,27.0,00.0,36.7,29.5,20.2,0000.0,0003.13,0002.19,0001.88
2021-09-21 09:31:00,,0838.1,4.99,0.00,27.7,27.0,00.0,36.7,29.5,20.1,0000.0,0003.19,0002.25,0001.89
2021-09-21 09:32:00,,0838.1,5.01,0.00,27.7,27.0,00.0,36.7,29.5,20.1,0000.0,0003.23,0002.28,0001.90
2021-09-21 09:33:00,,0838.1,4.99,0.00,27.7,27.1,00.0,36.7,29.6,20.1,0000.0,0003.23,0002.29,0001.90
2021-09-21 09:34:00,,0838.1,5.00,0.00,27.7,27.1,00.0,36.7,29.6,20.1,0000.0,0003.32,0002.34,0001.92
2021-09-21 09:35:00,,0838.1,5.00,0.00,27.7,27.1,00.0,36.7,29.6,20.1,0000.0,0003.49,0002.35,0001.93
2021-09-21 09:36:00,,0838.1,5.00,0.00,27.8,27.1,00.0,36.7,29.6,20.2,0000.0,0003.79,0002.33,0001.93
2021-09-21 09:37:00,,0838.1,5.00,0.00,27.8,27.1,00.0,36.8,29.6,20.2,0000.0,0003.71,0002.30,0001.93
2021-09-21 09:38:00,,0838.2,4.99,0.00,27.8,27.1,00.0,36.8,29.7,20.2,0000.0,0003.71,0002.29,0001.95
2021-09-21 09:39:00,,0838.2,5.00,0.00,27.8,27.1,00.0,36.8,29.7,20.1,0000.0,0003.79,0002.32,0001.96
2021-09-21 09:40:00,,0838.2,5.00,0.00,27.8,27.1,00.0,36.8,29.7,20.1,0000.0,0003.80,0002.32,0001.95
2021-09-21 09:41:00,,0838.1,5.01,0.00,27.8,27.2,00.0,36.8,29.7,20.0,0000.0,0003.71,0002.30,0001.96
2021-09-21 09:42:00,,0838.1,4.99,0.00,27.9,27.2,00.0,36.8,29.7,20.0,0000.0,0003.64,0002.31,0001.98
2021-09-21 09:43:00,,0838.1,5.00,0.00,27.9,27.2,00.0,36.8,29.8,20.0,0000.0,0003.60,0002.31,0001.99
2021-09-21 09:44:00,,0838.2,5.00,0.00,27.9,27.2,00.0,36.9,29.8,19.9,0000.0,0003.56,0002.30,0002.00
2021-09-21 09:45:00,,0838.1,5.00,0.00,27.9,27.2,00.0,36.9,29.8,19.9,0000.0,0003.48,0002.27,0002.00
2021-09-21 09:46:00,,0838.1,5.00,0.00,27.9,27.2,00.0,36.9,29.8,19.9,0000.0,0003.42,0002.28,0002.01
2021-09-21 09:47:00,,0838.1,5.01,0.00,28.0,27.2,00.0,36.9,29.8,19.9,0000.0,0003.00,0002.28,0002.01
2021-09-21 09:48:00,,0838.1,5.00,0.00,28.0,27.2,00.0,36.9,29.8,20.0,0000.0,0003.10,0002.32,0002.01
2021-09-21 09:49:00,,0838.1,4.99,0.00,28.0,27.2,00.0,36.9,29.8,20.0,0000.0,0003.05,0002.33,0002.02
2021-09-21 09:50:00,,0838.1,5.01,0.00,28.0,27.2,00.0,36.9,29.8,20.0,0000.0,0002.97,0002.32,0002.03
2021-09-21 09:51:00,,0838.1,4.99,0.00,28.0,27.2,00.0,37.0,29.8,20.0,0000.0,0002.94,0002.32,0002.05
2021-09-21 09:52:00,,0838.1,5.01,0.00,28.0,27.2,00.0,37.0,29.8,20.0,0000.0,0002.99,0002.35,0002.06
2021-09-21 09:53:00,,0838.1,5.01,0.00,28.0,27.3,00.0,37.0,29.8,19.9,0000.0,0002.88,0002.30,0002.07
2021-09-21 09:54:00,,0838.1,4.98,0.00,28.0,27.3,00.0,37.0,29.8,19.9,0000.0,0002.92,0002.31,0002.07
2021-09-21 09:55:00,,0838.1,5.00,0.00,28.0,27.2,00.0,37.0,29.8,19.9,0000.0,0003.08,0002.36,0002.07
2021-09-21 09:56:00,,0838.1,5.01,0.00,28.0,27.2,00.0,37.0,29.8,19.9,0000.0,0003.20,0002.38,0002.08
2021-09-21 09:57:00,,0838.1,5.00,0.00,28.0,27.3,00.0,37.0,29.8,19.9,0000.0,0003.17,0002.37,0002.08
2021-09-21 09:58:00,,0838.2,5.00,0.00,28.0,27.3,00.0,37.0,29.9,19.9,0000.0,0003.19,0002.39,0002.11
2021-09-21 09:59:00,,0838.2,5.02,0.00,28.1,27.3,00.0,37.0,29.9,19.8,0000.0,0003.18,0002.39,0002.13
